Location: Aalen
(48.8330°N, 10.1000°E)
Time: 09:32:31
(UTC+02:00)

Transit 2A - Pass Details

Date: 06 August 2021
Orbit: 594 x 964 km, 66.7° (Epoch: 24 September)

Event Time Altitude Azimuth Distance (km) Brightness Sun altitude
Rises 14:46:34 0° 323° (NW) 3,233 9.1 53.7°
Reaches altitude 10° 14:48:51 10° 323° (NW) 2,359 8.5 53.5°
Maximum altitude 14:54:20 84° 236° (WSW) 860 7.5 53.0°
Drops below altitude 10° 15:00:21 10° 149° (SSE) 2,583 9.0 52.4°
Sets 15:02:58 0° 149° (SSE) 3,561 9.6 52.1°
